Location: Vado del Tejar
(40.2333°N, 4.2667°W)
Time: 02:13:33
(UTC+00:00)

Daily predictions for brighter satellites

Satellite Brightness Start Highest point End
(mag) Time Altitude Azimuth Time Altitude Azimuth Time Altitude Azimuth
NOSS 3-1 (A) 4.2 04:09:52 69° SSE 04:09:52 69° SSE 04:17:42 10° SSE
Cosmos 1656 4.1 04:33:52 59° ENE 04:33:52 59° ENE 04:38:39 10° NNE
OAO 3 Rocket 4.4 04:46:13 33° SSE 04:46:13 33° SSE 04:49:44 10° ESE
Cosmos 2221 4.3 04:44:06 22° NE 04:45:54 30° ENE 04:49:41 10° SE
SL-08 R/B 4.1 04:42:04 10° SSE 04:45:31 46° SSE 04:45:31 46° SSE
Cosmos 1610 Rocket 4.4 04:48:49 30° N 04:52:13 88° E 04:58:36 10° S
Nadezhda 1 Rocket 3.7 04:48:18 10° SSW 04:54:22 75° W 05:00:32 10° N
USA 308 4.3 05:01:14 28° NE 05:01:14 28° NE 05:03:16 10° NE
Lacrosse 4 Rocket 2.3 05:01:33 44° NE 05:01:33 44° NE 05:04:37 10° NNE
Cosmos 2327 Rocket 4.3 04:56:32 21° N 05:00:46 90° ENE 05:06:51 10° S
Cosmos 1992 Rocket 3.9 05:01:26 69° SSW 05:01:26 69° SSW 05:06:09 10° SSE
PSLV R/B 4.0 04:57:47 10° NNE 05:01:59 60° E 05:06:13 10° S
Spot 4 Rocket 3.9 05:06:17 10° N 05:11:27 77° WNW 05:16:35 10° SSW
DELTA 2 R/B (1) 3.6 05:12:43 59° WSW 05:13:41 72° SSW 05:19:16 10° ESE
Cosmos 1356 Rocket 4.1 05:15:09 43° N 05:15:09 43° N 05:18:05 10° N
Cosmos 1295 Rocket 4.4 05:13:52 50° WNW 05:14:43 54° W 05:20:35 10° SSW
Cosmos 1697 Rocket 3.0 05:09:39 10° SSW 05:15:14 68° ESE 05:20:52 10° NNE
CZ-4C R/B 3.4 05:13:02 10° SSE 05:16:02 59° SE 05:16:02 59° SE
Cosmos 2227 Rocket 2.7 05:12:58 19° N 05:16:57 58° ENE 05:22:31 10° SE
USA 306 4.1 05:19:01 28° N 05:19:01 28° N 05:21:25 10° NE
Cosmos 2341 Rocket 4.1 05:13:43 10° N 05:19:58 75° E 05:26:09 10° SSE
Cosmos 2297 Rocket 2.1 05:17:56 36° NNW 05:20:24 84° WSW 05:26:03 10° SSE
USA 32 4.1 05:15:17 10° S 05:20:30 78° E 05:25:45 10° N
Cosmos 1400 Rocket 3.3 05:17:39 10° S 05:21:41 62° E 05:25:42 10° NNE
Cosmos 2251 Rocket 3.4 05:19:17 10° SSW 05:24:30 86° ESE 05:29:46 10° NNE
Cosmos 1356 3.5 05:28:10 64° ENE 05:28:17 65° E 05:31:25 10° SSE
Cosmos 1933 3.7 05:25:30 17° N 05:28:32 65° E 05:32:34 10° SSE
USA 229 DEB 4.4 05:30:02 33° WNW 05:32:21 40° WSW 05:39:38 10° S
USA 229 4.4 05:30:05 33° WNW 05:32:27 41° WSW 05:39:44 10° S
CZ-4B R/B 3.8 05:27:45 10° NNE 05:32:29 62° ESE 05:37:09 10° S
Cosmos 2360 4.1 05:31:04 10° SSW 05:36:46 80° WNW 05:42:29 10° NNE
Cosmos 405 4.3 05:36:15 10° SSE 05:39:18 37° E 05:42:23 10° NNE
SJ-6F 4.5 05:35:58 10° N 05:39:58 53° WNW 05:44:00 10° SSW
ATLAS 5 CENTAUR R/B 4.1 05:24:44 10° NW 05:41:48 46° WSW 05:46:44 10° S
CRYOSAT 2 4.4 05:37:51 10° N 05:42:35 51° W 05:47:17 10° SSW
GEOS 3 Rocket 3.7 05:38:10 10° NE 05:43:32 81° SE 05:48:53 10° SSW
Cosmos 2151 3.0 05:41:10 10° S 05:45:23 81° E 05:49:37 10° N
COSMO-SKYMED 1 2.5 05:42:10 10° S 05:46:29 69° WSW 05:50:13 14° NNW
Cosmos 389 Rocket 4.5 05:45:31 10° SSE 05:48:22 28° E 05:51:14 10° NNE
Cosmos 1812 2.5 05:46:23 16° N 05:49:20 79° W 05:53:06 10° S
Cosmos 1782 2.6 05:46:35 14° NNW 05:49:53 76° W 05:53:49 10° S
Cosmos 1076 Rocket 3.3 05:46:08 10° SSW 05:50:23 76° W 05:54:38 10° N
SKYMED 3 4.4 05:47:55 10° S 05:52:05 79° WSW 05:56:20 10° NNW
Iridium 4 Rocket 3.9 05:48:35 10° N 05:52:41 49° E 05:56:42 10° SSE
Cosmos 2219 3.2 05:50:18 11° NNW 05:55:50 88° WSW 06:01:29 10° SSE
BREEZE-M DEB (TANK) 3.9 05:55:16 19° NNW 05:57:07 30° NNE 06:03:55 10° E
DMSP B5D2-2 4.3 05:52:48 10° S 05:57:48 46° W 06:02:49 10° NNW
CZ-2C R/B 4.1 05:55:40 10° N 06:01:32 14° SW 06:02:09 10° SW
USA 307 3.9 05:59:39 24° NW 06:00:17 25° NNW 06:03:40 10° NNE
DNEPR-1 R/B 4.1 05:56:08 10° SW 06:00:56 60° NW 06:06:55 10° NNE
SL-8 Rocket 4.0 05:55:36 10° NNW 06:01:39 60° W 06:07:39 10° S
Cosmos 1346 Rocket 3.1 05:57:57 10° N 06:01:57 70° E 06:05:54 10° SSE
H-2A R/B 2.3 05:57:22 10° NNE 06:02:16 69° ESE 06:07:11 10° S
Cosmos 1190 Rocket 4.1 05:58:12 10° SSW 06:03:24 81° ESE 06:08:41 10° NNE
USA 305 4.2 06:04:00 20° NW 06:04:40 20° NNW 06:07:43 10° NNE
Cosmos 2263 Rocket 3.5 05:59:43 10° N 06:04:57 37° ENE 06:10:07 10° SE
Meteor 1-31 Rocket 2.6 06:03:30 10° NNE 06:07:20 88° WNW 06:11:06 10° SSW
USA 276 3.9 06:09:16 16° NNW 06:09:34 16° NNW 06:11:35 10° NNE
Cosmos 1821 Rocket 4.3 06:06:32 10° N 06:12:38 68° E 06:18:40 10° SSE
Cosmos 2366 rocket 4.1 06:07:26 10° NNW 06:13:40 58° W 06:19:49 10° S
Cosmos 1862 3.2 06:14:43 10° SSW 06:18:41 66° W 06:22:42 10° N
Gbstr 26 Del rocket 4.5 06:18:17 16° W 06:20:38 24° SW 06:24:33 10° S
Meteor 2-3 Rocket 4.4 06:16:55 10° SW 06:21:50 31° WNW 06:26:48 10° N
Cosmos 2221 3.8 06:20:58 14° NW 06:23:11 20° W 06:26:22 10° SW
Cosmos 1980 Rocket 2.1 06:18:58 10° SSW 06:24:30 67° WNW 06:30:06 10° NNE
Cosmos 2218 Rocket 4.3 06:19:34 10° NNW 06:25:34 47° W 06:31:29 10° SSW
Cosmos 1441 Rocket 3.1 06:23:33 10° NNW 06:27:14 64° W 06:30:52 10° S
CZ-2D R/B 3.4 06:23:27 10° NNE 06:27:19 77° ESE 06:31:08 10° S
SL-16 R/B 4.3 06:22:37 10° SSE 06:27:32 32° ESE 06:32:30 10° NE
OAO 3 Rocket 4.0 06:24:08 10° WSW 06:28:33 44° S 06:32:57 10° ESE
Cosmos 1842 Rocket 4.5 06:25:49 10° NNW 06:29:26 26° W 06:33:03 10° SSW
Cosmos 1939 Rocket 3.7 06:28:08 10° NNW 06:31:35 28° WNW 06:35:03 10° SW
Cosmos 1140 Rocket 4.3 06:29:35 10° WSW 06:34:07 30° WNW 06:38:43 10° N
GPS 2-04 Rocket1 4.2 06:31:09 10° SW 06:34:29 31° SSE 06:37:52 10° ESE
ARGOS 3.5 06:33:09 10° NNE 06:38:34 74° ESE 06:43:54 10° S
USA 308 4.5 06:36:34 11° WNW 06:39:01 17° NNW 06:41:42 10° NNE
Lacrosse 4 Rocket 3.4 06:37:51 11° WNW 06:39:25 12° NW 06:41:17 10° NNW
CBERS 1 LM4 rocket 4.4 06:42:41 10° N 06:47:29 66° WNW 06:52:25 10° SSW
ATLAS 5 CENTAUR R/B 4.2 06:45:21 10° SSE 06:48:09 22° ESE 06:51:06 10° ENE
Cosmos 1515 3.9 06:45:25 10° N 06:49:09 72° E 06:52:50 10° SSE
Cosmos 407 Rocket 4.5 06:45:21 10° WSW 06:49:46 26° WNW 06:54:13 10° N
Meteor PRIRODA 3.6 06:48:09 10° NNE 06:51:49 90° NW 06:55:27 10° SSW
Meteor 2-6 Rocket 4.3 06:48:58 10° NNW 06:54:23 53° W 06:59:39 10° S
